User: anonymous   Login
Location: Unspecified
(0.0000°N, 0.0000°E)
Time: 07:48:32
(UTC+00:00)
Language:

Tiros 4 - Orbit

View from above orbital plane
View from above orbital plane
View from above satellite
View from above satellite

Ground track
Ground track

The orbit data is extracted from the following two-line orbital elements,

1   226U 62002A   18112.50983964 -.00000124 +00000-0 +13070-4 0  9990
2   226 048.2954 146.0310 0078767 241.5182 117.7767 14.45618223937581
Epoch (UTC): 22 April 2018 12:14:10
Eccentricity: 0.0078767
inclination: 48.2954°
perigee height: 684 km
apogee height: 796 km
right ascension of ascending node: 146.0310°
argument of perigee: 241.5182°
revolutions per day: 14.45618223
mean anomaly at epoch: 117.7767°
orbit number at epoch: 93758

The dashed part of the orbit path shows where the satellite is in the earth's shadow,  

DLR